Weather in Chelno-Vershini

Russia / Samara Oblast     54°24′52″N   51°04′50″E
temp.,
°C
wind,
m/s
gust,
m/s
humid.,
%
clouds,
%
prec.,
mm/h
press.,
hPa
HPBL,
m
7 march, sun
sun701:00−16sw228914 0.0 101320
04:00−16sw228939 0.0 101220
07:00−17wsw239792 0.0 101221
10:00−14wsw239680 0.1 1012103
13:00−11sw349463 0.0 1011249
16:00−10sw479576 0.1 1010273
19:00−12s489558 0.0 1008125
22:00−9ssw7149179 0.0 1006567
8 march, mon
mon801:00−8s81593100 0.9 1002772
04:00−5ssw81594100 2.2 999971
07:00−5ssw101694100 1.7 995973
10:00−3wsw91482100 2.6 9971065
13:00−4wsw6107627 0.0 1000758
16:00−4sw6118154 0.1 1001829
19:00−6ssw4118539 0.0 1001236
22:00−6ssw5129226 0.0 1001332
9 march, tue
tue901:00−7wsw51291100 0.1 1002403
04:00−12w359778 0.2 1005102
07:00−15w349532 0.0 100832
10:00−13wsw239530 0.0 1010123
13:00−10wsw229073 0.0 1011264
16:00−9sse019085 0.0 1010203
19:00−13nne239599 0.0 101021
22:00−17nne349569 0.0 101044
10 march, wed
wed1001:00−17n369889 0.0 1009100
04:00−18nnw489894 0.0 1009173
07:00−17nnw61095100 0.1 1010331
10:00−18nnw61093100 0.1 1013439
13:00−17nnw6992100 0.1 1015497
16:00−19nnw6991100 0.1 1016478
19:00−23nw5109484 0.0 1018244
22:00−24nnw4119342 0.0 1020218
11 march, thu
thu1101:00−26nw47964 0.0 1020127
04:00−28nw379812 0.0 102294
07:00−28nw349815 0.0 102441
10:00−23wnw479517 0.0 1025271
13:00−18wnw479395 0.0 1025422
16:00−16wnw479197 0.1 1025520
19:00−18wnw3397100 0.1 102634
22:00−20wnw2399100 0.1 102821